EW3016 Weather Reports


Display with metric or nautical units.
time (UTC)temp
F
wind
direction
speed
MPH
gust
MPH
rain 1hr
in
rain 24hr
in
rain mn
in
humidity
%
barometer
mb
20260904093015 66 0.0 0.0 0.00 0.16 0.16 97 1014.1
20260904090059 65 0.0 0.0 0.00 0.16 0.16 96 1014.3
20260904083017 66 0.0 0.0 0.00 0.18 0.16 96 1013.9
20260904080018 66 0.0 0.0 0.00 0.21 0.16 96 1013.4
20260904073037 66 0.0 0.0 0.00 0.22 0.16 96 1013.7
20260904070017 67 0.0 0.0 0.00 0.23 0.16 95 1013.7
20260904063017 67 0.0 0.0 0.00 0.36 0.16 95 1013.2
20260904060017 68 0.0 0.0 0.09 0.39 0.16 95 1014.0
20260904053037 68 0.0 0.0 0.15 0.42 0.16 96 1014.6
20260904050017 68 0.0 0.0 0.07 0.33 0.07 95 1014.6
20260904043017 69 0.0 0.0 0.01 0.31 0.01 94 1014.2
20260904040018 69 0.0 0.0 0.00 0.31 0.31 94 1014.2
20260904033016 69 0.0 0.0 0.00 0.35 0.31 94 1014.1
20260904030037 69 0.0 0.0 0.00 0.44 0.31 93 1014.1
20260904023037 70 0.0 0.0 0.00 0.70 0.31 93 1014.4
20260904020017 70 0.0 0.0 0.00 1.30 0.31 92 1014.8
20260904013119 71 0.0 0.0 0.00 1.32 0.31 93 1015.0
20260904010017 71 0.0 0.0 0.00 1.32 0.31 92 1014.9
20260904003017 72 0.0 0.0 0.00 1.32 0.31 89 1014.7
20260904000016 72 0.0 0.0 0.00 1.32 0.31 87 1014.5
20260903233017 74 0.0 0.0 0.00 1.32 0.31 84 1014.9
20260903230017 75 0.0 0.0 0.00 1.32 0.31 82 1014.3
20260903223016 76 0.0 0.0 0.00 1.32 0.31 82 1014.7
20260903220016 77 0.0 0.0 0.00 1.32 0.31 81 1014.6
20260903213016 77 0.0 3.0 0.00 1.32 0.31 80 1014.8
20260903210016 77 0.0 3.0 0.00 1.32 0.31 79 1014.9
20260903203016 77 0.0 0.0 0.00 1.32 0.31 81 1014.8
20260903200016 77 0.0 0.0 0.00 1.32 0.31 80 1014.9
20260903193016 78 0.0 0.0 0.00 1.32 0.31 82 1015.1
20260903190016 78 0.0 5.0 0.00 1.32 0.31 79 1015.3
20260903183016 76 0.0 3.0 0.00 1.32 0.31 83 1015.6
20260903180018 78 248 1.0 6.0 0.00 1.32 0.31 83 1016.0
20260903173016 75 248 1.0 7.0 0.00 1.32 0.31 84 1015.8
20260903170016 75 248 1.0 6.0 0.00 1.32 0.31 87 1015.9
20260903163016 73 0.0 3.0 0.00 1.34 0.31 93 1016.2
20260903160016 71 0.0 6.0 0.00 1.40 0.31 94 1016.4
20260903153036 70 0.0 0.0 0.00 1.74 0.31 95 1016.7
20260903150016 70 0.0 7.0 0.00 1.74 0.31 94 1016.6
20260903143016 69 0.0 0.0 0.00 1.74 0.31 94 1016.5
20260903140016 69 0.0 4.0 0.00 1.74 0.31 95 1016.2
20260903133016 68 0.0 7.0 0.00 1.74 0.31 95 1016.1
20260903130016 68 0.0 8.0 0.00 1.74 0.31 96 1016.3
20260903123016 67 0.0 3.0 0.00 1.74 0.31 97 1016.1
20260903120016 66 0.0 1.0 0.00 1.74 0.31 97 1016.2
20260903113015 66 0.0 3.0 0.00 1.74 0.31 97 1016.1
20260903110016 66 0.0 3.0 0.00 1.74 0.31 96 1016.2
20260903103017 65 0.0 0.0 0.00 1.74 0.31 96 1016.1
20260903100015 65 0.0 0.0 0.00 1.74 0.31 96 1016.0